Lewiston, ID

6:02 PM PDT on August 29, 2016 (GMT -0700)
Lewiston-Nez Perce County

Weather History for KLWS - December, 2013

Change the Weather History Date:

Friday, December 6, 2013

  Actual Average Record
Temperature  
Mean Temperature 12 °F 35 °F  
Max Temperature 19 °F 41 °F 60 °F (1939)
Min Temperature 5 °F 29 °F 5 °F (2013)
Degree Days  
Heating Degree Days 53 30  
Month to date heating degree days 231 177  
Since 1 July heating degree days 1585 1417  
Cooling Degree Days 0 0  
Month to date cooling degree days 0 0  
Year to date cooling degree days 1178 807  
Moisture  
Dew Point 5 °F    
Average Humidity 62    
Maximum Humidity 80    
Minimum Humidity 43    
Precipitation  
Precipitation T in 0.03 in 0.68 in (1950)
Month to date precipitation 0.33 0.19  
Year to date precipitation 9.09 11.53  
Snow  
Snow T in 0.20 in 1.90 in (1983)
Month to date snowfall 0.2 0.6  
Since 1 July snowfall 0.2 2.4  
Snow Depth 0.00 in    
Sea Level Pressure  
Sea Level Pressure 30.26 in    
Wind  
Wind Speed 3 mph (NE)    
Max Wind Speed 16 mph    
Max Gust Speed 22 mph    
Visibility 9 miles    
Events Snow    
T = Trace of Precipitation, MM = Missing Value Source: NWS Daily Summary

Daily Weather History Graph

Daily Weather History Graph

Search for Another Location

Airport or City:

Trip Planner

Search our weather history database for the weather conditions in past years. The results will help you decide how hot, cold, wet, or windy it might be!

Date:

Astronomy

Dec. 06, 2013 Rise Set
Actual Time 7:16 AM PST 4:01 PM PST
Civil Twilight 6:42 AM PST 4:36 PM PST
Nautical Twilight 6:04 AM PST 5:14 PM PST
Astronomical Twilight 5:27 AM PST 5:50 PM PST
Moon 10:16 AM PST (12/6) 8:48 PM PST (12/6)
Length of Visible Light 9h 53m
Length of Day
8h 44m
Waxing Crescent, 20% of the Moon is Illuminated
Dec 6
Waxing Crescent
Dec 9
First Quarter
Dec 17
Full
Dec 25
Last Quarter
Jan 1
New

Hourly Weather History & Observations

Time (PST) Temp. Windchill Dew Point Humidity Pressure Visibility Wind Dir Wind Speed Gust Speed Precip Events Conditions
12:56 AM 9.0 °F - 3.0 °F 77% 30.32 in 10.0 mi Calm Calm - N/A   Clear
1:56 AM 8.1 °F - 1.9 °F 76% 30.33 in 10.0 mi Calm Calm - N/A   Clear
2:56 AM 7.0 °F - 1.0 °F 77% 30.32 in 10.0 mi Calm Calm - N/A   Clear
3:56 AM 6.1 °F - 1.0 °F 80% 30.32 in 10.0 mi Calm Calm - N/A   Mostly Cloudy
4:56 AM 10.0 °F 1.8 °F 3.0 °F 73% 30.31 in 10.0 mi NE 4.6 mph - N/A   Overcast
5:56 AM 10.0 °F - 3.0 °F 73% 30.32 in 10.0 mi Calm Calm - N/A   Overcast
6:56 AM 9.0 °F - 3.0 °F 77% 30.32 in 10.0 mi Calm Calm - N/A   Overcast
7:56 AM 10.0 °F - 3.9 °F 76% 30.32 in 10.0 mi Calm Calm - N/A   Overcast
8:56 AM 10.9 °F - 5.0 °F 77% 30.32 in 7.0 mi Calm Calm - N/A   Overcast
9:56 AM 12.9 °F - 7.0 °F 77% 30.33 in 3.0 mi Calm Calm - 0.00 in Snow Light Snow
10:56 AM 17.1 °F - 9.0 °F 71% 30.30 in 8.0 mi Calm Calm - 0.00 in   Mostly Cloudy
11:56 AM 17.1 °F 11.7 °F 9.0 °F 71% 30.28 in 10.0 mi Variable 3.5 mph - N/A   Mostly Cloudy
12:56 PM 19.0 °F 13.9 °F 9.0 °F 65% 30.25 in 10.0 mi West 3.5 mph - N/A   Mostly Cloudy
1:56 PM 19.0 °F 11.1 °F 10.0 °F 68% 30.24 in 10.0 mi SW 5.8 mph - N/A   Mostly Cloudy
2:56 PM 19.0 °F - 10.0 °F 68% 30.23 in 10.0 mi Calm Calm - N/A   Overcast
3:56 PM 19.0 °F - 10.0 °F 68% 30.22 in 10.0 mi Calm Calm - N/A   Overcast
4:56 PM 19.0 °F - 10.0 °F 68% 30.21 in 10.0 mi Calm Calm - N/A   Overcast
5:56 PM 18.0 °F - 10.9 °F 74% 30.21 in 10.0 mi Calm Calm - N/A   Overcast
6:56 PM 18.0 °F - 10.9 °F 74% 30.20 in 10.0 mi Calm Calm - N/A   Mostly Cloudy
7:56 PM 19.0 °F 7.5 °F 1.9 °F 47% 30.18 in 10.0 mi NE 10.4 mph - N/A   Overcast
8:56 PM 18.0 °F 4.2 °F -0.9 °F 44% 30.18 in 10.0 mi ENE 13.8 mph - N/A   Overcast
9:56 PM 17.1 °F 2.5 °F -0.9 °F 45% 30.18 in 10.0 mi ENE 15.0 mph 21.9 mph N/A   Mostly Cloudy
10:56 PM 17.1 °F 4.3 °F -2.0 °F 43% 30.18 in 10.0 mi ENE 11.5 mph - N/A   Overcast
11:56 PM 16.0 °F 2.9 °F -2.9 °F 43% 30.16 in 10.0 mi NE 11.5 mph - N/A   Overcast